Location: Newark
(47.5833°N, 8.1500°E)
Time: 18:47:47
(UTC+00:00)

Transit 2A - Pass Details

Date: 28 October 2020
Orbit: 595 x 964 km, 66.7° (Epoch: 01 December)

Event Time Altitude Azimuth Distance (km) Brightness Sun altitude
Rises 06:51:53 0° 325° (NW) 3,554 8.9 6.3°
Reaches altitude 10° 06:55:18 10° 343° (NNW) 2,551 8.3 6.8°
Maximum altitude 06:59:24 19° 27° (NNE) 1,911 8.1 7.4°
Drops below altitude 10° 07:03:15 10° 71° (ENE) 2,375 9.3 8.0°
Sets 07:06:16 0° 90° (E) 3,226 10.4 8.4°
